Tracking 31027 objects as of 19-Jul-2025
HD Live streaming from Space Station
objects crossing your sky now

COSMOS 1275 DEB *

Track COSMOS 1275 DEB * now!
10-day predictions


NORAD ID: 18565
Int'l Code: 1981-053LY
Perigee: 944.7 km
Apogee: 1,128.0 km
Inclination: 82.5 °
Period: 105.7 minutes
Semi major axis: 7407 km
RCS: 0.0174 m2 (small)
Launch date: June 4, 1981
Source: Commonwealth of Independent States (former USSR) (CIS)
Launch site: PLESETSK MISSILE AND SPACE COMPLEX (PKMTR)

Note: This is SATELLITE DEBRIS
Your satellite tracking list
SL-12 R/B(AUX MOTOR)
Track 1 satellite(s)




NASA's NSSDC Master Catalog

Two Line Element Set (TLE):
1 18565U 85094U   25199.47867192  .00004423  00000-0  54599-2 0  9998
2 18565  82.4824  29.8087 0123749 309.7999  77.2587 13.61785050645671
Source of the keplerian elements: AFSPC